Flag for Canada Weather past 2 weeks in Saint John, New Brunswick, Canada

Now
75 °F

Scattered clouds.


Feels Like: 78 °F
Forecast: 58 / 76 °F
Wind: 12 mph from West

Location: Saint John

Current Time: Aug 20, 2014 at 12:36:12 PM

Latest Report: Aug 20, 2014 at 12:00 PM


Visibility: 15 mi

Pressure: 30.00 "Hg

Humidity: 57%

Dew point: 59 °F

Location of Saint JohnLocation

Historic Weather in Saint John — Graph

°F

Saint John temperature yesterday

Maximum temperature yesterday: 75 °F (at 4:00 PM)
Minimum temperature yesterday: 55 °F (at 4:00 AM)
Average temperature yesterday: 64 °F

Past Weeks' High & Low Weather Summary

 TemperatureHumidityPressure
High77 °F (Aug 5, 3:00 PM)100% (Aug 5, 11:00 AM)30.20 "Hg (Aug 5, 11:00 AM)
Low46 °F (Aug 12, 4:00 AM)44% (Aug 12, 5:00 PM)29.65 "Hg (Aug 18, 4:00 PM)
Average62 °F87%29.93 "Hg
* Reported Aug 5 11:00 AM — Aug 20 11:00 AM, Saint John, Weather by CustomWeather, © 2014

Note: Actual official high and low records may vary slightly from our data, if they occured in-between our weather recording intervals... More about our weather records

Advertising

Saint John weather history for previous 24 hours

 ConditionsComfort  
Time TempWeatherWind HumidityBarometerVisibility
11:00 AM
Aug 20
73 °FPassing clouds.7 mph61%29.99 "Hg15 mi
10:00 AM70 °FSunny.7 mph69%29.98 "Hg15 mi
9:00 AM68 °FPassing clouds.5 mph73%29.98 "Hg15 mi
8:00 AM59 °FSunny.No wind94%29.97 "Hg15 mi
7:00 AM52 °FClear.No wind100%29.96 "Hg15 mi
6:00 AM52 °FClear.No wind100%29.94 "Hg15 mi
5:00 AM52 °FClear.No wind100%29.93 "Hg15 mi
4:00 AM52 °FClear.No wind100%29.92 "Hg15 mi
3:00 AM52 °FClear.2 mph100%29.91 "Hg15 mi
2:00 AM57 °FClear.3 mph94%29.91 "Hg15 mi
1:00 AM61 °FClear.3 mph88%29.91 "Hg15 mi
12:00 AM59 °FClear.5 mph94%29.90 "Hg15 mi
11:00 PM
Aug 19
59 °FClear.No wind94%29.89 "Hg15 mi
10:00 PM64 °FPassing clouds.6 mph78%29.89 "Hg15 mi
9:00 PM64 °FPassing clouds.3 mph78%29.88 "Hg15 mi
8:00 PM68 °FPassing clouds.5 mph73%29.86 "Hg15 mi
7:00 PM73 °FScattered clouds.9 mph57%29.85 "Hg15 mi
6:00 PM75 °FScattered clouds.10 mph50%29.84 "Hg15 mi
5:00 PM73 °FScattered clouds.8 mph57%29.83 "Hg15 mi
4:00 PM75 °FPartly sunny.14 mph54%29.83 "Hg15 mi
3:00 PM73 °FPartly sunny.12 mph53%29.83 "Hg15 mi
2:00 PM72 °FPartly sunny.10 mph57%29.82 "Hg15 mi
1:00 PM70 °FPartly sunny.9 mph64%29.83 "Hg15 mi
12:00 PM66 °FScattered clouds.9 mph73%29.83 "Hg15 mi
Weather by CustomWeather, © 2014

See weather overviewHow to use our weather pages